�������l�o���
Date,Time,MP-1(��Sv/h),MP-2(��Sv/h),MP-3(��Sv/h),MP-4(��Sv/h),MP-5(��Sv/h),MP-6(��Sv/h),MP-7(��Sv/h),MP-8(��Sv/h),����,����(m/s),���J
2017/03/06,00:00,1.054,1.722,1.167,2.035,1.428,0.556,1.020,0.946,�쐼,1.7,��
2017/03/06,00:10,1.053,1.726,1.169,2.033,1.424,0.556,1.020,0.946,���쐼,1.5,��
2017/03/06,00:20,1.051,1.724,1.169,2.035,1.423,0.558,1.018,0.944,��,2.0,��
2017/03/06,00:30,1.054,1.725,1.166,2.035,1.427,0.556,1.019,0.945,���k��,1.2,��
2017/03/06,00:40,1.053,1.723,1.168,2.030,1.424,0.556,1.019,0.946,-,CALM,��
2017/03/06,00:50,1.053,1.724,1.169,2.033,1.425,0.556,1.017,0.946,��,1.2,��
2017/03/06,01:00,1.055,1.721,1.170,2.034,1.427,0.554,1.019,0.944,��,1.2,��
2017/03/06,01:10,1.053,1.723,1.165,2.034,1.426,0.557,1.018,0.946,��,0.9,��
2017/03/06,01:20,1.050,1.724,1.165,2.033,1.425,0.554,1.018,0.945,��,0.6,��
2017/03/06,01:30,1.054,1.722,1.168,2.035,1.425,0.556,1.019,0.945,�쐼,1.2,��
2017/03/06,01:40,1.054,1.722,1.172,2.032,1.426,0.557,1.018,0.945,�쐼,3.2,��
2017/03/06,01:50,1.054,1.722,1.168,2.032,1.425,0.557,1.019,0.947,�쐼,3.7,��
2017/03/06,02:00,1.051,1.721,1.168,2.034,1.427,0.557,1.022,0.945,�쐼,4.0,��
2017/03/06,02:10,1.053,1.719,1.169,2.034,1.427,0.557,1.019,0.946,��쐼,4.1,��
2017/03/06,02:20,1.051,1.725,1.167,2.035,1.427,0.556,1.021,0.945,�쐼,4.2,��
2017/03/06,02:30,1.054,1.725,1.167,2.035,1.426,0.557,1.019,0.947,���쐼,3.1,��
2017/03/06,02:40,1.053,1.722,1.169,2.038,1.425,0.556,1.018,0.945,���쐼,2.9,��
2017/03/06,02:50,1.054,1.725,1.167,2.034,1.424,0.557,1.020,0.945,���쐼,2.5,��
2017/03/06,03:00,1.050,1.724,1.168,2.033,1.428,0.557,1.018,0.944,�쐼,2.8,��
2017/03/06,03:10,1.053,1.722,1.167,2.034,1.426,0.557,1.018,0.945,�쐼,3.3,��
2017/03/06,03:20,1.054,1.722,1.169,2.030,1.424,0.556,1.022,0.946,�쐼,3.8,��
2017/03/06,03:30,1.053,1.725,1.168,2.034,1.426,0.557,1.020,0.947,�쐼,3.4,��
2017/03/06,03:40,1.054,1.722,1.168,2.035,1.425,0.556,1.019,0.945,�쐼,3.9,��
2017/03/06,03:50,1.054,1.725,1.169,2.034,1.424,0.556,1.018,0.945,�쐼,3.1,��
2017/03/06,04:00,1.053,1.721,1.166,2.034,1.422,0.556,1.019,0.945,���쐼,3.0,��
2017/03/06,04:10,1.051,1.723,1.167,2.031,1.423,0.556,1.018,0.946,�쐼,3.1,��
2017/03/06,04:20,1.055,1.722,1.167,2.032,1.426,0.557,1.018,0.947,�쐼,3.1,��
2017/03/06,04:30,1.052,1.723,1.167,2.032,1.423,0.557,1.019,0.947,���쐼,2.8,��
2017/03/06,04:40,1.052,1.722,1.168,2.033,1.425,0.557,1.019,0.943,���쐼,2.8,��
2017/03/06,04:50,1.053,1.722,1.168,2.034,1.424,0.556,1.017,0.945,�k��,2.5,��
2017/03/06,05:00,1.052,1.721,1.169,2.032,1.423,0.556,1.018,0.946,�k��,2.8,��
2017/03/06,05:10,1.052,1.720,1.164,2.034,1.425,0.556,1.020,0.946,���k��,3.9,��
2017/03/06,05:20,1.052,1.720,1.167,2.033,1.425,0.554,1.017,0.945,���k��,3.1,��
2017/03/06,05:30,1.050,1.721,1.168,2.034,1.423,0.555,1.019,0.945,���k��,2.6,��
2017/03/06,05:40,1.052,1.724,1.167,2.033,1.424,0.556,1.018,0.945,���k��,3.5,��
2017/03/06,05:50,1.051,1.720,1.167,2.034,1.423,0.555,1.017,0.945,���k��,3.2,��
2017/03/06,06:00,1.054,1.723,1.167,2.032,1.426,0.554,1.018,0.945,�k��,2.3,��
2017/03/06,06:10,1.052,1.721,1.165,2.032,1.425,0.557,1.018,0.946,-,CALM,��
2017/03/06,06:20,1.053,1.722,1.169,2.034,1.422,0.554,1.017,0.946,-,CALM,��
2017/03/06,06:30,1.052,1.722,1.167,2.032,1.423,0.555,1.018,0.945,���k��,0.9,��
2017/03/06,06:40,1.052,1.723,1.167,2.034,1.423,0.557,1.021,0.944,���k��,0.9,��
2017/03/06,06:50,1.054,1.722,1.165,2.031,1.425,0.555,1.019,0.947,��,0.9,��
2017/03/06,07:00,1.053,1.723,1.165,2.034,1.426,0.555,1.019,0.947,��,0.9,��
2017/03/06,07:10,1.056,1.720,1.167,2.032,1.423,0.557,1.019,0.946,��쐼,0.8,��
2017/03/06,07:20,1.052,1.724,1.166,2.035,1.423,0.556,1.018,0.944,��쐼,0.9,��
2017/03/06,07:30,1.054,1.724,1.170,2.034,1.423,0.555,1.019,0.946,��쓌,1.5,��
2017/03/06,07:40,1.056,1.726,1.169,2.035,1.422,0.555,1.020,0.946,��,1.4,��
2017/03/06,07:50,1.053,1.726,1.168,2.037,1.426,0.556,1.021,0.948,��,0.8,��
2017/03/06,08:00,1.054,1.726,1.168,2.032,1.426,0.557,1.022,0.946,��,1.5,��
2017/03/06,08:10,1.053,1.724,1.168,2.036,1.425,0.556,1.021,0.948,��,1.4,��
2017/03/06,08:20,1.054,1.726,1.167,2.034,1.427,0.559,1.021,0.946,��,1.2,��
2017/03/06,08:30,1.056,1.722,1.171,2.038,1.425,0.556,1.019,0.948,-,CALM,��
2017/03/06,08:40,1.057,1.725,1.171,2.036,1.427,0.556,1.020,0.947,-,CALM,��
2017/03/06,08:50,1.055,1.724,1.173,2.039,1.428,0.556,1.019,0.947,���쓌,1.2,��
2017/03/06,09:00,1.056,1.727,1.169,2.040,1.429,0.556,1.019,0.946,�쓌,1.7,��
2017/03/06,09:10,1.057,1.729,1.169,2.039,1.428,0.556,1.018,0.948,�쓌,1.9,��
2017/03/06,09:20,1.056,1.727,1.171,2.040,1.431,0.557,1.018,0.949,�쓌,2.0,��
2017/03/06,09:30,1.057,1.726,1.169,2.038,1.429,0.558,1.018,0.949,�쓌,2.3,��
2017/03/06,09:40,1.056,1.729,1.172,2.037,1.432,0.556,1.017,0.948,���쓌,2.0,��
2017/03/06,09:50,1.057,1.727,1.173,2.038,1.431,0.557,1.017,0.946,���쓌,1.7,��
2017/03/06,10:00,1.057,1.728,1.174,2.035,1.432,0.556,1.021,0.948,���쓌,2.2,��
2017/03/06,10:10,1.058,1.724,1.171,2.040,1.431,0.556,1.018,0.949,���쓌,1.7,��
2017/03/06,10:20,1.057,1.725,1.170,2.037,1.431,0.556,1.020,0.948,���쓌,0.9,��
2017/03/06,10:30,1.056,1.725,1.173,2.039,1.431,0.557,1.020,0.947,��,1.2,��
2017/03/06,10:40,1.059,1.726,1.174,2.041,1.431,0.559,1.019,0.949,���쓌,1.5,��
2017/03/06,10:50,1.057,1.729,1.173,2.041,1.428,0.558,1.022,0.948,���쓌,1.5,��
2017/03/06,11:00,1.060,1.726,1.172,2.038,1.429,0.557,1.021,0.949,�쓌,2.0,��
2017/03/06,11:10,1.059,1.727,1.172,2.039,1.425,0.558,1.020,0.951,�쓌,2.5,��
2017/03/06,11:20,1.060,1.725,1.172,2.041,1.430,0.558,1.020,0.949,�쓌,2.6,��
2017/03/06,11:30,1.059,1.727,1.173,2.041,1.429,0.558,1.018,0.949,�쓌,2.9,��
2017/03/06,11:40,1.060,1.728,1.172,2.042,1.427,0.562,1.021,0.947,��쓌,3.7,��
2017/03/06,11:50,1.060,1.728,1.175,2.041,1.430,0.559,1.020,0.949,��쓌,4.1,��
2017/03/06,12:00,1.060,1.727,1.174,2.041,1.424,0.558,1.022,0.949,��,3.3,��
2017/03/06,12:10,1.061,1.725,1.173,2.042,1.428,0.560,1.020,0.948,��쓌,3.6,��
2017/03/06,12:20,1.057,1.728,1.174,2.044,1.427,0.557,1.020,0.949,��쓌,4.5,��
2017/03/06,12:30,1.060,1.730,1.173,2.042,1.430,0.557,1.022,0.949,��쓌,4.8,��
2017/03/06,12:40,1.060,1.731,1.173,2.041,1.428,0.559,1.021,0.949,��쓌,6.5,��
2017/03/06,12:50,1.060,1.731,1.173,2.042,1.432,0.559,1.020,0.950,��쓌,7.0,��
2017/03/06,13:00,1.060,1.730,1.173,2.041,1.429,0.559,1.022,0.950,��,7.6,��
2017/03/06,13:10,1.061,1.730,1.175,2.041,1.425,0.559,1.019,0.951,��,5.1,��
2017/03/06,13:20,1.061,1.729,1.174,2.043,1.429,0.559,1.020,0.949,��,4.0,��
2017/03/06,13:30,1.061,1.728,1.175,2.045,1.429,0.558,1.021,0.948,��,5.2,��
2017/03/06,13:40,1.059,1.728,1.175,2.041,1.433,0.560,1.021,0.949,��,5.6,��
2017/03/06,13:50,1.059,1.728,1.174,2.042,1.434,0.560,1.021,0.948,��,5.4,��
2017/03/06,14:00,1.060,1.724,1.176,2.039,1.431,0.560,1.021,0.948,��,5.7,��
2017/03/06,14:10,1.060,1.725,1.174,2.041,1.435,0.560,1.023,0.949,��,4.5,��
2017/03/06,14:20,1.061,1.724,1.175,2.045,1.432,0.559,1.021,0.949,��,4.6,��
2017/03/06,14:30,1.059,1.725,1.175,2.041,1.432,0.560,1.021,0.950,��,5.2,��
2017/03/06,14:40,1.061,1.725,1.172,2.045,1.431,0.556,1.023,0.948,��,4.6,��
2017/03/06,14:50,1.059,1.729,1.174,2.043,1.431,0.561,1.024,0.949,��,4.0,��
2017/03/06,15:00,1.059,1.728,1.173,2.042,1.432,0.561,1.022,0.950,��,5.4,��
2017/03/06,15:10,1.061,1.729,1.175,2.043,1.432,0.561,1.024,0.949,��,4.9,��
2017/03/06,15:20,1.062,1.727,1.173,2.042,1.433,0.561,1.023,0.948,��,4.5,��
2017/03/06,15:30,1.058,1.732,1.174,2.044,1.433,0.560,1.022,0.948,��,4.6,��
2017/03/06,15:40,1.061,1.729,1.174,2.043,1.434,0.559,1.023,0.949,��쓌,5.3,��
2017/03/06,15:50,1.061,1.725,1.172,2.042,1.435,0.560,1.020,0.950,��,4.6,��
2017/03/06,16:00,1.062,1.729,1.172,2.042,1.431,0.561,1.023,0.949,��쓌,6.4,��
2017/03/06,16:10,1.059,1.728,1.174,2.043,1.431,0.559,1.022,0.948,��,6.9,��
2017/03/06,16:20,1.063,1.729,1.174,2.038,1.430,0.561,1.024,0.949,��,7.3,��
2017/03/06,16:30,1.061,1.729,1.173,2.043,1.430,0.558,1.021,0.949,��,6.3,��
2017/03/06,16:40,1.059,1.727,1.174,2.042,1.431,0.559,1.022,0.947,��,5.2,��
2017/03/06,16:50,1.060,1.728,1.173,2.041,1.431,0.560,1.023,0.949,��,4.9,��
2017/03/06,17:00,1.059,1.729,1.174,2.040,1.431,0.561,1.021,0.948,��,5.7,��
2017/03/06,17:10,1.059,1.729,1.173,2.041,1.431,0.560,1.021,0.947,��,6.2,��
2017/03/06,17:20,1.060,1.728,1.173,2.042,1.429,0.561,1.024,0.948,��쐼,5.7,��
2017/03/06,17:30,1.064,1.730,1.172,2.041,1.430,0.560,1.023,0.949,��쐼,5.3,��
2017/03/06,17:40,1.059,1.727,1.173,2.043,1.430,0.561,1.026,0.949,��,6.0,��
2017/03/06,17:50,1.060,1.730,1.176,2.041,1.431,0.560,1.023,0.948,��,6.3,��
2017/03/06,18:00,1.061,1.729,1.175,2.039,1.431,0.561,1.023,0.948,��,7.0,��
2017/03/06,18:10,1.060,1.728,1.174,2.038,1.432,0.562,1.021,0.947,��,6.3,��
2017/03/06,18:20,1.061,1.728,1.173,2.041,1.429,0.560,1.022,0.950,��,5.8,��
2017/03/06,18:30,1.061,1.727,1.176,2.039,1.430,0.562,1.023,0.948,��쐼,5.1,��
2017/03/06,18:40,1.061,1.728,1.176,2.040,1.430,0.562,1.024,0.948,��쐼,5.5,��
2017/03/06,18:50,1.058,1.726,1.173,2.041,1.430,0.561,1.024,0.948,��쐼,5.0,��
2017/03/06,19:00,1.059,1.726,1.172,2.044,1.429,0.561,1.024,0.949,��쐼,4.2,��
2017/03/06,19:10,1.059,1.729,1.172,2.040,1.432,0.559,1.025,0.948,�쐼,3.9,��
2017/03/06,19:20,1.061,1.725,1.172,2.039,1.429,0.560,1.023,0.948,�쐼,3.5,��
2017/03/06,19:30,1.060,1.724,1.173,2.038,1.430,0.561,1.024,0.948,��,4.2,��
2017/03/06,19:40,1.059,1.728,1.175,2.040,1.428,0.560,1.024,0.949,���k��,5.5,��
2017/03/06,19:50,1.062,1.728,1.173,2.043,1.430,0.558,1.024,0.947,���k��,8.3,��
2017/03/06,20:00,1.060,1.727,1.172,2.044,1.429,0.560,1.023,0.948,��,6.9,��
2017/03/06,20:10,1.059,1.726,1.173,2.044,1.430,0.560,1.025,0.947,��,8.2,��
2017/03/06,20:20,1.057,1.727,1.175,2.042,1.433,0.558,1.025,0.947,��,7.0,��
2017/03/06,20:30,1.060,1.725,1.176,2.040,1.429,0.561,1.024,0.947,��,6.5,��
2017/03/06,20:40,1.058,1.726,1.171,2.040,1.430,0.558,1.023,0.948,��,6.2,��
2017/03/06,20:50,1.059,1.728,1.171,2.043,1.430,0.558,1.022,0.949,���쐼,2.6,��
2017/03/06,21:00,1.060,1.728,1.172,2.040,1.427,0.561,1.022,0.948,��,1.9,��
2017/03/06,21:10,1.055,1.724,1.174,2.039,1.428,0.558,1.023,0.947,�쐼,4.9,��
2017/03/06,21:20,1.057,1.725,1.171,2.042,1.430,0.559,1.022,0.948,���쐼,5.1,��
2017/03/06,21:30,1.055,1.725,1.172,2.042,1.430,0.559,1.024,0.948,�쐼,4.4,��
2017/03/06,21:40,1.057,1.727,1.173,2.042,1.430,0.558,1.023,0.947,���쐼,3.3,��
2017/03/06,21:50,1.055,1.726,1.174,2.042,1.428,0.559,1.023,0.950,���쐼,2.3,��
2017/03/06,22:00,1.058,1.728,1.171,2.038,1.427,0.558,1.023,0.947,��,2.3,��
2017/03/06,22:10,1.056,1.729,1.172,2.039,1.431,0.559,1.022,0.946,��,5.0,��
2017/03/06,22:20,1.057,1.725,1.171,2.040,1.430,0.560,1.023,0.948,��,5.9,��
2017/03/06,22:30,1.057,1.723,1.170,2.039,1.429,0.558,1.021,0.947,��,5.5,��
2017/03/06,22:40,1.057,1.725,1.172,2.041,1.428,0.558,1.023,0.949,��,6.2,��
2017/03/06,22:50,1.055,1.728,1.174,2.038,1.427,0.558,1.022,0.950,��,5.6,��
2017/03/06,23:00,1.053,1.726,1.171,2.042,1.426,0.560,1.023,0.948,���k��,6.5,��
2017/03/06,23:10,1.055,1.727,1.170,2.040,1.430,0.559,1.023,0.947,�k��,7.9,��
2017/03/06,23:20,1.054,1.726,1.170,2.039,1.430,0.558,1.023,0.948,�k��,7.8,��
2017/03/06,23:30,1.058,1.723,1.170,2.042,1.430,0.559,1.023,0.947,�k��,7.4,��
2017/03/06,23:40,1.056,1.725,1.171,2.042,1.428,0.557,1.023,0.948,�k�k��,9.6,��
2017/03/06,23:50,1.054,1.724,1.170,2.041,1.427,0.558,1.021,0.948,�k��,11.0,��
